Live-Position
3D-Globus wird geladen...
Über Starlink 33815
Group: 3 satellites
Beschreibung wird geladen...
Nächste Überflüge
Passes for default location (London). Set your location on the main map for personalized predictions.
Höhenverlauf
Loading altitude history...
No altitude history available
Zweizeiliger Elementsatz
1 63497U 25071E 26124.31648030 .00020649 00000-0 70733-3 0 9998
2 63497 53.1604 241.7547 0001547 87.9296 272.1882 15.30201775 61286
Epoch: 4. Mai 2026 •
Age: 9 hours
Aktueller Status
Höhe 475.2 km
Geschwindigkeit 7.63 km/s
Subsatellitenpunkt 19.18°N,
59.14°W
Startdatum 7. Apr. 2025
Alter 1 years
Typ internet
Startgruppe
Falcon 9 •
Group 11-11 •
27 satellites
Starlink 33828
63493
Starlink 33819 63494
Starlink 33845 63495
Starlink 33829 63496
Starlink 33833 63498
Starlink 33534 63499
Starlink 33838 63500
Starlink 33837 63501
Starlink 33818 63502
Starlink 33583 63503
Starlink 33811 63504
Starlink 33825 63505
Starlink 33792 63506
Starlink 33843 63507
Starlink 33809 63508
Starlink 33678 63509
Starlink 33764 63510
Starlink 33804 63511
Starlink 33751 63512
Starlink 33750 63513
...and 6 more
Technische Details
Klassifizierung Payload
Masse 575.00 kg
Trockenmasse 530.00 kg
Gesamtmasse 575.00 kg
Länge 0.30 m
Durchmesser 4.10 m
Spannweite 29.00 m
Form Box + pan
Hersteller SPXS
Bus-Typ Starlink V2MO
Phasenstatus In Orbit
Besitzer/Staat SPXS/US
Most Searched
Loading...